EW2835 Weather Reports


Display with metric or nautical units.
time (UTC)temp
F
wind
direction
speed
MPH
gust
MPH
rain 1hr
in
rain 24hr
in
rain mn
in
humidity
%
barometer
mb
20260510181537 64 327 0.0 0.0 0.00 0.00 0.00 59 1008.3
20260510180039 65 328 0.0 1.0 0.00 0.00 0.00 56 1008.3
20260510174520 66 328 0.0 0.0 0.00 0.00 0.00 50 1008.4
20260510173019 66 337 0.0 2.0 0.00 0.00 0.00 49 1008.5
20260510171519 66 320 0.0 3.0 0.00 0.00 0.00 47 1008.6
20260510170015 67 354 1.0 3.0 0.00 0.00 0.00 47 1008.8
20260510164519 67 290 0.0 2.0 0.00 0.00 0.00 50 1009.0
20260510163013 67 257 0.0 2.0 0.00 0.00 0.00 51 1009.2
20260510160029 68 234 1.0 6.0 0.00 0.00 0.00 48 1009.4
20260510154534 67 117 1.0 6.0 0.00 0.00 0.00 47 1009.6
20260510153029 68 47 2.0 6.0 0.00 0.00 0.00 48 1009.8
20260510151522 67 259 1.0 5.0 0.00 0.00 0.00 48 1010.0
20260510150021 68 254 0.0 5.0 0.00 0.00 0.00 49 1010.2
20260510144534 68 309 1.0 5.0 0.00 0.00 0.00 48 1010.3
20260510143033 68 32 1.0 7.0 0.00 0.00 0.00 50 1010.6
20260510141515 68 244 0.0 7.0 0.00 0.00 0.00 51 1010.8
20260510140012 67 308 1.0 4.0 0.00 0.00 0.00 50 1011.1
20260510134512 68 303 2.0 8.0 0.00 0.00 0.00 49 1011.2
20260510133010 68 150 0.0 4.0 0.00 0.00 0.00 52 1011.4
20260510131506 68 81 0.0 3.0 0.00 0.00 0.00 51 1011.5
20260510130009 69 171 2.0 7.0 0.00 0.00 0.00 49 1011.7
20260510124503 67 44 1.0 4.0 0.00 0.00 0.00 49 1011.8
20260510123100 68 253 0.0 2.0 0.00 0.00 0.00 53 1012.0
20260510121557 69 92 3.0 5.0 0.00 0.00 0.00 50 1012.1
20260510120056 67 76 1.0 5.0 0.00 0.00 0.00 53 1012.2
20260510114554 67 267 1.0 5.0 0.00 0.00 0.00 54 1012.4
20260510113052 68 186 1.0 4.0 0.00 0.00 0.00 52 1012.6
20260510111551 68 155 0.0 7.0 0.00 0.00 0.00 51 1012.8
20260510110047 68 108 3.0 9.0 0.00 0.00 0.00 52 1012.9
20260510104544 68 101 2.0 8.0 0.00 0.00 0.00 54 1013.0
20260510103042 67 199 2.0 10.0 0.00 0.00 0.00 56 1013.2
20260510101538 66 216 2.0 6.0 0.00 0.00 0.00 57 1013.3
20260510100037 66 131 3.0 6.0 0.00 0.00 0.00 58 1013.4
20260510094546 65 174 3.0 8.0 0.00 0.00 0.00 58 1013.7
20260510093050 66 158 3.0 5.0 0.00 0.00 0.00 55 1013.7
20260510091541 66 144 3.0 9.0 0.00 0.00 0.00 56 1013.8
20260510090130 66 92 0.0 4.0 0.00 0.00 0.00 58 1014.1
20260510084526 64 68 1.0 3.0 0.00 0.00 0.00 60 1014.4
20260510083026 65 203 1.0 4.0 0.00 0.00 0.00 60 1014.4
20260510081519 62 125 1.0 4.0 0.00 0.00 0.00 63 1014.4
20260510080016 61 223 1.0 4.0 0.00 0.00 0.00 68 1014.7
20260510074515 61 158 3.0 6.0 0.00 0.00 0.00 67 1014.9
20260510073014 59 160 2.0 9.0 0.00 0.00 0.00 69 1015.1
20260510071506 58 152 2.0 5.0 0.00 0.00 0.00 69 1015.1
20260510070002 58 151 2.0 5.0 0.00 0.00 0.00 71 1015.2
20260510064557 56 69 1.0 8.0 0.00 0.00 0.00 74 1015.2
20260510063054 54 109 2.0 5.0 0.00 0.00 0.00 78 1015.3
20260510061552 53 109 1.0 3.0 0.00 0.00 0.00 81 1015.4
20260510060048 51 86 1.0 3.0 0.00 0.00 0.00 86 1015.5
20260510054547 50 81 0.0 3.0 0.00 0.00 0.00 86 1015.5
20260510053058 51 92 2.0 5.0 0.00 0.00 0.00 82 1015.7
20260510051548 50 128 0.0 4.0 0.00 0.00 0.00 85 1015.6
20260510050038 49 76 1.0 3.0 0.00 0.00 0.00 88 1015.3
20260510044534 48 27 1.0 6.0 0.00 0.00 0.00 92 1015.4
20260510043039 45 76 0.0 2.0 0.00 0.00 0.00 96 1015.6
20260510041528 42 102 0.0 2.0 0.00 0.00 0.00 96 1015.9
20260510040034 41 97 0.0 0.0 0.00 0.00 0.00 95 1015.9
20260510034522 41 97 0.0 0.0 0.00 0.00 0.00 95 1016.1
20260510033018 41 97 0.0 0.0 0.00 0.00 0.00 94 1016.1
20260510031518 41 97 0.0 0.0 0.00 0.00 0.00 95 1016.2
20260510030011 42 97 0.0 0.0 0.00 0.00 0.00 94 1016.1
20260510024510 42 97 0.0 0.0 0.00 0.00 0.00 95 1016.2
20260510023009 43 101 0.0 0.0 0.00 0.00 0.00 94 1016.2
20260510021521 43 67 0.0 4.0 0.00 0.00 0.00 95 1016.3
20260510020006 43 41 0.0 0.0 0.00 0.00 0.00 95 1016.5
20260510014506 44 41 0.0 3.0 0.00 0.00 0.00 95 1016.8
20260510013004 44 81 0.0 4.0 0.00 0.00 0.00 95 1016.6
20260510011500 43 90 0.0 4.0 0.00 0.00 0.00 95 1016.8
20260510004600 42 111 0.0 0.0 0.00 0.00 0.00 94 1017.3
20260510003056 42 111 0.0 0.0 0.00 0.00 0.00 93 1017.6
20260510001551 43 111 0.0 0.0 0.00 0.00 0.00 93 1017.9
20260510000056 43 111 0.0 1.0 0.00 0.00 0.00 93 1018.1
20260509234547 43 111 0.0 0.0 0.00 0.00 0.00 92 1018.1
20260509233045 43 111 0.0 0.0 0.00 0.00 0.00 92 1018.3
20260509231545 44 111 0.0 0.0 0.00 0.00 0.00 92 1018.5
20260509230042 44 111 0.0 0.0 0.00 0.00 0.00 91 1018.6
20260509224539 44 111 0.0 0.0 0.00 0.00 0.00 91 1018.6
20260509223037 45 111 0.0 0.0 0.00 0.00 0.00 90 1018.7
20260509221537 45 111 0.0 0.0 0.00 0.00 0.00 90 1018.8
20260509220034 45 111 0.0 0.0 0.00 0.00 0.00 89 1018.9
20260509214532 46 111 0.0 0.0 0.00 0.00 0.00 88 1018.8
20260509213034 46 111 0.0 0.0 0.00 0.00 0.00 88 1018.8
20260509211531 47 111 0.0 0.0 0.00 0.00 0.00 87 1018.8
20260509210034 47 111 0.0 0.0 0.00 0.00 0.00 85 1018.8
20260509204535 48 111 0.0 0.0 0.00 0.00 0.00 84 1019.0
20260509203029 49 111 0.0 0.0 0.00 0.00 0.00 82 1019.0
20260509201528 50 111 0.0 0.0 0.00 0.00 0.00 81 1019.0
20260509200027 50 111 0.0 0.0 0.00 0.00 0.00 80 1018.9
20260509194530 51 111 0.0 0.0 0.00 0.00 0.00 78 1018.8
20260509193030 53 99 0.0 1.0 0.00 0.00 0.00 76 1018.8
20260509191538 54 99 0.0 0.0 0.00 0.00 0.00 73 1018.7
20260509190029 55 99 0.0 0.0 0.00 0.00 0.00 69 1018.7
20260509184534 57 99 0.0 1.0 0.00 0.00 0.00 66 1018.4
20260509183030 57 99 0.0 2.0 0.00 0.00 0.00 63 1018.5